CW4869 Weather Reports


Display with metric or nautical units.
time (UTC)temp
F
wind
direction
speed
MPH
gust
MPH
rain 1hr
in
rain 24hr
in
rain mn
in
humidity
%
barometer
mb
20260903115535 68 127 1.0 3.0 0.00 0.11 0.00 94 1012.9
20260903115042 68 89 1.0 2.0 0.00 0.11 0.00 94 1012.9
20260903114551 68 89 1.0 2.0 0.00 0.11 0.00 95 1012.8
20260903114041 68 1 1.0 2.0 0.00 0.11 0.00 95 1012.9
20260903113527 68 89 1.0 2.0 0.00 0.11 0.00 95 1012.8
20260903113035 68 135 1.0 3.0 0.00 0.11 0.00 95 1012.8
20260903112541 69 89 1.0 3.0 0.00 0.11 0.00 95 1012.7
20260903112031 69 63 1.0 2.0 0.00 0.11 0.00 95 1012.7
20260903111526 69 46 1.0 4.0 0.00 0.11 0.00 95 1012.6
20260903111038 70 152 1.0 4.0 0.00 0.11 0.00 95 1012.5
20260903110527 70 46 1.0 4.0 0.00 0.11 0.00 95 1012.4
20260903110035 70 46 1.0 5.0 0.00 0.11 0.00 95 1012.3
20260903105524 70 1 1.0 5.0 0.00 0.11 0.00 95 1012.2
20260903105035 70 98 2.0 5.0 0.00 0.11 0.00 95 1012.3
20260903104548 70 89 2.0 4.0 0.00 0.11 0.00 95 1012.3
20260903104037 71 89 2.0 4.0 0.00 0.11 0.00 95 1012.3
20260903103524 71 72 0.0 3.0 0.00 0.11 0.00 95 1012.2
20260903103037 71 89 1.0 3.0 0.00 0.11 0.00 95 1012.2
20260903102534 71 63 0.0 2.0 0.00 0.11 0.00 95 1012.2
20260903102027 71 28 0.0 2.0 0.00 0.11 0.00 96 1012.1
20260903101536 71 117 0.0 3.0 0.00 0.11 0.00 96 1012.1
20260903101025 71 46 1.0 3.0 0.00 0.11 0.00 96 1012.1
20260903100533 71 89 0.0 1.0 0.00 0.11 0.00 95 1012.1
20260903100025 71 63 0.0 1.0 0.00 0.11 0.00 95 1012.0
20260903095535 71 63 0.0 1.0 0.00 0.11 0.00 95 1012.0
20260903095026 71 46 0.0 1.0 0.00 0.11 0.00 95 1012.1
20260903094533 71 135 0.0 1.0 0.00 0.11 0.00 95 1012.0
20260903094023 71 89 0.0 2.0 0.00 0.11 0.00 95 1012.0
20260903093532 71 105 0.0 2.0 0.00 0.11 0.00 95 1012.0
20260903093040 72 89 0.0 1.0 0.00 0.11 0.00 95 1012.1
20260903092552 72 135 0.0 1.0 0.00 0.11 0.00 95 1012.0
20260903092024 72 1 0.0 2.0 0.00 0.11 0.00 95 1012.0
20260903091538 72 108 1.0 3.0 0.00 0.11 0.00 95 1012.0
20260903091028 72 63 1.0 3.0 0.00 0.11 0.00 95 1012.0
20260903090537 72 46 1.0 2.0 0.00 0.11 0.00 95 1011.9
20260903090050 72 76 1.0 3.0 0.00 0.11 0.00 95 1011.9
20260903085536 72 89 0.0 5.0 0.00 0.11 0.00 95 1011.8
20260903085047 72 79 1.0 4.0 0.00 0.11 0.00 95 1011.8
20260903084615 72 135 0.0 3.0 0.00 0.11 0.00 95 1011.8
20260903084058 72 81 1.0 3.0 0.00 0.11 0.00 95 1011.9
20260903083526 72 108 0.0 4.0 0.00 0.11 0.00 95 1011.8
20260903083034 72 89 1.0 3.0 0.00 0.11 0.00 95 1011.8
20260903082524 73 89 0.0 3.0 0.00 0.11 0.00 95 1011.8
20260903082036 73 1 1.0 2.0 0.00 0.11 0.00 95 1011.7
20260903081523 73 46 0.0 2.0 0.00 0.11 0.00 95 1011.7
20260903081036 73 20 0.0 3.0 0.00 0.11 0.00 95 1011.7
20260903080524 73 20 1.0 4.0 0.00 0.11 0.00 95 1011.7
20260903080034 73 32 1.0 4.0 0.00 0.11 0.00 95 1011.6
20260903075539 73 1 1.0 3.0 0.00 0.11 0.00 95 1011.6
20260903075029 73 15 1.0 3.0 0.00 0.11 0.00 95 1011.6
20260903074537 73 28 1.0 3.0 0.00 0.11 0.00 95 1011.5
20260903074029 73 89 1.0 3.0 0.00 0.11 0.00 95 1011.5
20260903073537 73 46 1.0 3.0 0.00 0.11 0.00 95 1011.5
20260903073030 73 1 1.0 3.0 0.00 0.11 0.00 95 1011.6
20260903072539 73 46 1.0 3.0 0.00 0.11 0.00 95 1011.6
20260903072052 73 63 1.0 2.0 0.00 0.11 0.00 95 1011.6
20260903071539 73 28 1.0 3.0 0.00 0.11 0.00 95 1011.6
20260903071032 73 89 1.0 3.0 0.00 0.11 0.00 95 1011.6
20260903070538 73 46 1.0 3.0 0.00 0.11 0.00 94 1011.6
20260903070046 73 135 0.0 3.0 0.00 0.11 0.00 94 1011.6
20260903065534 73 46 1.0 3.0 0.00 0.11 0.00 94 1011.6
20260903065043 73 46 1.0 3.0 0.00 0.11 0.00 94 1011.7
20260903064041 73 1 0.0 2.0 0.00 0.11 0.00 94 1011.7
20260903063529 73 1 0.0 2.0 0.00 0.11 0.00 94 1011.7
20260903063038 73 1 1.0 2.0 0.00 0.11 0.00 94 1011.7
20260903062545 73 28 1.0 2.0 0.00 0.11 0.00 94 1011.9
20260903062036 74 46 0.0 1.0 0.00 0.11 0.00 94 1011.8
20260903061540 74 89 0.0 1.0 0.00 0.11 0.00 94 1011.8
20260903061040 74 46 0.0 1.0 0.00 0.11 0.00 94 1011.8
20260903060553 74 135 0.0 1.0 0.00 0.11 0.00 94 1011.8
20260903060039 74 1 0.0 2.0 0.00 0.11 0.00 94 1011.8
20260903055613 74 1 1.0 2.0 0.00 0.11 0.00 94 1011.8
20260903055030 74 89 0.0 2.0 0.00 0.11 0.00 94 1011.8
20260903054535 74 89 0.0 1.0 0.00 0.11 0.00 94 1011.8
20260903054029 74 1 0.0 1.0 0.00 0.11 0.00 94 1011.7
20260903053538 74 89 0.0 1.0 0.00 0.11 0.00 94 1011.7
20260903053024 74 135 0.0 1.0 0.00 0.11 0.00 94 1011.7
20260903052600 74 135 0.0 1.0 0.00 0.11 0.00 94 1011.7
20260903052029 74 89 0.0 2.0 0.00 0.11 0.00 94 1011.5
20260903051538 74 46 0.0 1.0 0.00 0.11 0.00 94 1011.4
20260903051024 74 89 0.0 1.0 0.00 0.11 0.00 94 1011.4
20260903050532 74 63 0.0 1.0 0.00 0.11 0.00 94 1011.4
20260903050034 74 46 0.0 1.0 0.00 0.11 0.00 94 1011.5
20260903045538 74 89 0.0 1.0 0.00 0.11 0.00 94 1011.3
20260903045029 74 46 0.0 2.0 0.00 0.11 0.00 94 1011.3
20260903044539 74 46 1.0 2.0 0.00 0.11 0.00 94 1011.2
20260903044027 75 135 0.0 1.0 0.00 0.11 0.00 94 1011.1
20260903043600 75 179 0.0 1.0 0.00 0.11 0.00 93 1011.0
20260903043032 75 89 1.0 2.0 0.00 0.11 0.00 93 1011.0
20260903042539 75 89 0.0 3.0 0.00 0.11 0.00 93 1011.0
20260903042050 75 1 1.0 3.0 0.00 0.11 0.00 93 1010.9
20260903041535 75 28 0.0 1.0 0.00 0.11 0.00 93 1010.8
20260903041028 75 135 0.0 1.0 0.00 0.11 0.00 93 1010.7
20260903040534 75 340 0.0 1.0 0.00 0.11 0.00 93 1010.6
20260903040048 75 89 0.0 2.0 0.00 0.11 0.00 93 1010.4
20260903035528 75 1 0.0 3.0 0.00 0.11 0.11 93 1010.4
20260903035037 75 46 1.0 2.0 0.00 0.11 0.11 93 1010.3
20260903034527 75 324 1.0 2.0 0.00 0.11 0.11 93 1010.2
20260903034040 75 331 1.0 2.0 0.00 0.11 0.11 93 1010.3
20260903033530 75 340 1.0 2.0 0.00 0.11 0.11 93 1010.3
20260903033052 75 269 0.0 2.0 0.00 0.11 0.11 93 1010.3
20260903032521 75 331 0.0 2.0 0.00 0.11 0.11 93 1010.3
20260903032042 76 269 1.0 4.0 0.00 0.11 0.11 93 1010.2
20260903031535 76 295 2.0 4.0 0.00 0.11 0.11 93 1010.2
20260903031026 76 269 2.0 4.0 0.00 0.11 0.11 93 1010.2
20260903030533 76 232 3.0 4.0 0.00 0.11 0.11 93 1010.3
20260903030026 76 236 2.0 3.0 0.00 0.11 0.11 93 1010.5
20260903025532 76 237 3.0 3.0 0.00 0.11 0.11 93 1010.5
20260903025025 76 241 2.0 5.0 0.00 0.11 0.11 93 1010.6
20260903024533 76 241 3.0 5.0 0.00 0.11 0.11 93 1010.7
20260903024024 76 250 3.0 3.0 0.00 0.11 0.11 93 1010.8
20260903023531 76 250 2.0 3.0 0.00 0.11 0.11 93 1010.9
20260903023023 76 216 2.0 3.0 0.00 0.11 0.11 93 1010.9
20260903022529 76 229 2.0 3.0 0.00 0.11 0.11 93 1011.0
20260903022039 76 223 2.0 3.0 0.00 0.11 0.11 93 1010.9
20260903021528 76 197 1.0 4.0 0.00 0.11 0.11 93 1010.9
20260903021039 76 218 2.0 4.0 0.00 0.11 0.11 93 1010.9
20260903020528 76 250 2.0 3.0 0.00 0.11 0.11 93 1010.9
20260903020036 76 241 1.0 3.0 0.00 0.11 0.11 93 1010.8
20260903015524 76 161 2.0 3.0 0.00 0.11 0.11 93 1010.8
20260903015039 76 152 2.0 3.0 0.00 0.11 0.11 93 1010.8
20260903014530 76 190 2.0 3.0 0.00 0.11 0.11 93 1010.7
20260903014041 76 157 1.0 3.0 0.00 0.11 0.11 93 1010.8
20260903013529 76 161 1.0 4.0 0.00 0.11 0.11 93 1010.7
20260903013042 76 138 2.0 4.0 0.00 0.11 0.11 93 1010.8
20260903012522 76 148 2.0 3.0 0.00 0.11 0.11 93 1010.8
20260903012029 76 179 2.0 4.0 0.00 0.11 0.11 93 1010.8
20260903011537 76 152 3.0 4.0 0.00 0.11 0.11 93 1010.8
20260903011102 76 144 3.0 5.0 0.00 0.11 0.11 93 1010.6
20260903010034 76 137 3.0 6.0 0.00 0.11 0.11 93 1010.6
20260903005550 77 136 5.0 7.0 0.00 0.11 0.11 93 1010.5
20260903005038 77 140 5.0 7.0 0.00 0.11 0.11 93 1010.5
20260903004528 77 122 5.0 6.0 0.00 0.11 0.11 93 1010.5
20260903004039 77 139 4.0 5.0 0.00 0.11 0.11 92 1010.5
20260903003527 77 148 3.0 4.0 0.00 0.11 0.11 92 1010.4
20260903003101 76 161 3.0 4.0 0.00 0.11 0.11 92 1010.3
20260903002528 76 130 2.0 3.0 0.00 0.11 0.11 91 1010.2
20260903002024 77 102 2.0 2.0 0.00 0.11 0.11 91 1010.2
20260903001528 77 117 1.0 2.0 0.00 0.11 0.11 91 1010.2
20260903001051 77 89 0.0 2.0 0.00 0.11 0.11 91 1010.3
20260903000541 77 46 0.0 2.0 0.00 0.11 0.11 91 1010.3
20260903000032 77 77 1.0 2.0 0.00 0.11 0.11 91 1010.4
20260902235537 77 117 0.0 2.0 0.00 0.11 0.11 91 1010.4
20260902235031 77 89 1.0 2.0 0.00 0.11 0.11 91 1010.4
20260902234540 77 89 0.0 2.0 0.00 0.11 0.11 91 1010.4
20260902234053 77 46 1.0 3.0 0.00 0.11 0.11 91 1010.5
20260902233541 77 1 1.0 3.0 0.00 0.11 0.11 91 1010.4
20260902233034 77 35 1.0 2.0 0.00 0.11 0.11 91 1010.4
20260902232524 77 46 0.0 3.0 0.00 0.11 0.11 91 1010.4
20260902232047 77 63 0.0 3.0 0.00 0.11 0.11 90 1010.5
20260902231534 77 108 2.0 3.0 0.00 0.11 0.11 90 1010.6
20260902231050 77 117 2.0 3.0 0.00 0.11 0.11 90 1010.6
20260902230040 77 121 2.0 3.0 0.00 0.11 0.11 90 1010.5
20260902225528 77 107 2.0 3.0 0.00 0.11 0.11 90 1010.4
20260902225038 77 124 2.0 3.0 0.00 0.11 0.11 90 1010.3
20260902224528 77 179 1.0 2.0 0.00 0.11 0.11 90 1010.2
20260902224024 77 223 1.0 2.0 0.00 0.11 0.11 90 1010.3
20260902223529 77 254 1.0 2.0 0.00 0.11 0.11 90 1010.2
20260902223101 77 237 2.0 2.0 0.00 0.11 0.11 90 1010.2
20260902222529 77 161 1.0 4.0 0.00 0.11 0.11 90 1010.1
20260902222025 77 152 2.0 5.0 0.00 0.11 0.11 90 1010.1
20260902221614 77 147 3.0 6.0 0.00 0.11 0.11 90 1010.0
20260902221031 77 122 5.0 6.0 0.00 0.11 0.11 90 1010.0
20260902220522 77 117 6.0 6.0 0.00 0.11 0.11 90 1009.9
20260902220125 77 130 6.0 7.0 0.00 0.11 0.11 90 1009.8
20260902215537 76 122 5.0 7.0 0.00 0.11 0.11 90 1009.8
20260902215029 76 138 4.0 6.0 0.00 0.11 0.11 90 1010.0
20260902214531 76 124 3.0 4.0 0.00 0.11 0.11 90 1010.0
20260902214045 76 142 3.0 5.0 0.00 0.11 0.11 91 1010.1
20260902213532 76 148 3.0 6.0 0.00 0.11 0.11 90 1010.1
20260902213024 76 163 4.0 6.0 0.00 0.11 0.11 91 1010.3
20260902212102 76 179 5.0 7.0 0.00 0.11 0.11 90 1010.5
20260902211528 76 171 6.0 7.0 0.00 0.11 0.11 91 1010.5
20260902211040 76 156 5.0 8.0 0.00 0.11 0.11 91 1010.5
20260902210555 76 195 6.0 8.0 0.00 0.11 0.11 91 1010.5
20260902210052 76 208 6.0 8.0 0.00 0.11 0.11 91 1010.5
20260902205537 75 215 4.0 6.0 0.00 0.11 0.11 91 1010.6
20260902205101 75 183 4.0 6.0 0.00 0.11 0.11 91 1010.5
20260902204528 75 191 4.0 6.0 0.00 0.11 0.11 92 1010.5
20260902204036 75 144 4.0 5.0 0.00 0.11 0.11 92 1010.4
20260902203526 76 183 4.0 6.0 0.01 0.11 0.11 92 1010.5
20260902203039 75 187 4.0 8.0 0.01 0.11 0.11 92 1010.5
20260902202529 75 178 6.0 8.0 0.02 0.11 0.11 92 1010.3
20260902202037 75 203 4.0 6.0 0.03 0.11 0.11 92 1010.2
20260902201527 75 201 2.0 6.0 0.08 0.11 0.11 91 1010.0
20260902201039 75 210 4.0 11.0 0.08 0.11 0.11 91 1010.2
20260902200546 75 204 7.0 15.0 0.09 0.11 0.11 91 1010.1
20260902200037 76 181 8.0 18.0 0.09 0.11 0.11 90 1010.1
20260902195552 76 220 13.0 18.0 0.11 0.11 0.11 88 1010.3
20260902195049 78 183 6.0 11.0 0.11 0.11 0.11 87 1010.3
20260902194532 78 179 1.0 2.0 0.11 0.11 0.11 85 1010.1
20260902194029 78 1 0.0 2.0 0.11 0.11 0.11 84 1010.0
20260902193537 79 28 0.0 2.0 0.10 0.10 0.10 83 1009.8
20260902193025 79 1 0.0 2.0 0.10 0.10 0.10 83 1010.9
20260902192534 79 72 1.0 4.0 0.09 0.09 0.09 81 1011.7
20260902192025 80 234 2.0 6.0 0.06 0.06 0.06 81 1012.9
20260902191533 80 344 3.0 7.0 0.03 0.03 0.03 80 1012.9
20260902191041 81 20 3.0 7.0 0.03 0.03 0.03 83 1012.6
20260902190528 82 1 2.0 6.0 0.02 0.02 0.02 84 1011.8
20260902190047 82 20 2.0 6.0 0.02 0.02 0.02 83 1011.6
20260902185535 82 8 2.0 5.0 0.00 0.00 0.00 80 1011.6
20260902185028 82 1 2.0 4.0 0.00 0.00 0.00 80 1011.6
20260902184537 82 342 2.0 4.0 0.00 0.00 0.00 80 1011.1
20260902184024 82 1 1.0 3.0 0.00 0.00 0.00 81 1010.9
20260902183534 82 331 1.0 5.0 0.00 0.00 0.00 81 1010.9
20260902183026 82 269 2.0 6.0 0.00 0.00 0.00 82 1011.1
20260902182533 82 331 3.0 6.0 0.00 0.00 0.00 83 1011.2
20260902182040 82 340 1.0 5.0 0.00 0.00 0.00 84 1011.2
20260902181537 82 277 2.0 8.0 0.00 0.00 0.00 84 1011.2
20260902181046 82 286 4.0 8.0 0.00 0.00 0.00 84 1011.2
20260902180533 82 262 5.0 9.0 0.00 0.00 0.00 85 1011.2
20260902175527 82 278 5.0 8.0 0.00 0.00 0.00 86 1011.2
20260902175039 81 255 5.0 10.0 0.00 0.00 0.00 87 1011.1
20260902174529 80 253 7.0 11.0 0.00 0.00 0.00 88 1011.1
20260902174102 80 256 8.0 11.0 0.00 0.00 0.00 88 1011.3
20260902173546 80 257 9.0 11.0 0.00 0.00 0.00 88 1011.4
20260902173035 80 258 10.0 12.0 0.00 0.00 0.00 88 1011.4
20260902172522 80 258 8.0 11.0 0.00 0.00 0.00 88 1011.4
20260902172029 80 257 7.0 11.0 0.00 0.00 0.00 88 1011.4
20260902171522 80 261 8.0 10.0 0.00 0.00 0.00 88 1011.5
20260902171035 80 252 4.0 7.0 0.00 0.00 0.00 88 1011.5
20260902170525 80 255 5.0 8.0 0.00 0.00 0.00 88 1011.6
20260902170034 80 253 5.0 8.0 0.00 0.00 0.00 88 1011.6
20260902165542 80 261 3.0 4.0 0.00 0.00 0.00 89 1011.5
20260902165059 80 257 2.0 3.0 0.00 0.00 0.00 89 1011.5
20260902164543 80 269 1.0 4.0 0.00 0.00 0.00 89 1011.5
20260902164034 79 209 3.0 5.0 0.00 0.00 0.00 90 1011.4
20260902163525 79 186 3.0 6.0 0.00 0.00 0.00 91 1011.4
20260902163034 79 183 5.0 6.0 0.00 0.00 0.00 91 1011.4
20260902162522 79 179 5.0 6.0 0.00 0.00 0.00 91 1011.4
20260902162037 79 168 3.0 6.0 0.00 0.00 0.00 91 1011.6
20260902161528 79 174 5.0 6.0 0.00 0.00 0.00 92 1011.4
20260902161037 79 196 4.0 5.0 0.00 0.00 0.00 92 1011.5
20260902160527 79 218 2.0 5.0 0.00 0.00 0.00 92 1011.9
20260902155540 79 195 4.0 5.0 0.00 0.00 0.00 92 1011.9
20260902155029 78 196 4.0 6.0 0.00 0.00 0.00 93 1011.9
20260902154539 78 238 5.0 6.0 0.00 0.00 0.00 92 1012.0
20260902154025 78 251 5.0 6.0 0.00 0.00 0.00 92 1012.1
20260902153555 78 264 5.0 9.0 0.00 0.00 0.00 92 1012.1
20260902153027 77 255 7.0 11.0 0.00 0.00 0.00 93 1012.2
20260902152550 77 247 8.0 11.0 0.00 0.00 0.00 92 1012.2
20260902152036 77 255 8.0 10.0 0.00 0.00 0.00 93 1012.2
20260902151523 77 254 7.0 10.0 0.00 0.00 0.00 93 1012.1
20260902151059 77 253 8.0 10.0 0.00 0.00 0.00 93 1012.2
20260902150522 77 254 8.0 11.0 0.00 0.00 0.00 93 1012.3
20260902150032 77 240 8.0 11.0 0.00 0.00 0.00 93 1012.4
20260902145541 77 252 8.0 12.0 0.00 0.00 0.00 93 1012.4
20260902145039 77 253 10.0 12.0 0.00 0.00 0.00 93 1012.4
20260902144554 77 256 9.0 11.0 0.00 0.00 0.00 93 1012.3
20260902144025 76 255 7.0 10.0 0.00 0.00 0.00 93 1012.2
20260902143539 76 257 8.0 10.0 0.00 0.00 0.00 93 1012.1
20260902143103 76 254 6.0 11.0 0.00 0.00 0.00 93 1011.9
20260902142531 76 259 5.0 11.0 0.00 0.00 0.00 93 1012.2
20260902142114 76 247 3.0 11.0 0.00 0.00 0.00 93 1012.3
20260902141528 76 258 9.0 11.0 0.00 0.00 0.00 94 1011.7
20260902141036 76 258 7.0 9.0 0.00 0.00 0.00 94 1011.7
20260902140522 76 269 6.0 9.0 0.00 0.00 0.00 93 1011.8
20260902140035 76 269 6.0 9.0 0.00 0.00 0.00 93 1011.9
20260902135526 76 254 6.0 10.0 0.00 0.00 0.00 93 1011.9
20260902135046 76 258 7.0 10.0 0.00 0.00 0.00 93 1012.0
20260902134532 76 259 7.0 9.0 0.00 0.00 0.00 94 1011.8
20260902134026 76 256 6.0 9.0 0.00 0.00 0.00 94 1011.8
20260902133531 76 259 4.0 9.0 0.00 0.00 0.00 94 1011.9
20260902133040 76 259 7.0 10.0 0.00 0.00 0.00 94 1011.9
20260902132536 76 257 8.0 11.0 0.00 0.00 0.00 94 1012.0
20260902132029 76 252 8.0 12.0 0.00 0.00 0.00 94 1012.0
20260902131536 76 258 9.0 12.0 0.00 0.00 0.00 94 1012.0
20260902131028 76 253 8.0 12.0 0.00 0.00 0.00 94 1011.7
20260902130538 76 250 9.0 12.0 0.00 0.00 0.00 94 1011.6
20260902130056 76 244 8.0 12.0 0.00 0.00 0.00 94 1011.6
20260902125538 76 248 8.0 11.0 0.00 0.00 0.00 94 1011.4
20260902125055 76 258 8.0 14.0 0.00 0.00 0.00 94 1011.3
20260902124524 76 258 11.0 14.0 0.00 0.00 0.00 94 1011.3
20260902124030 76 234 10.0 13.0 0.00 0.00 0.00 94 1011.3
20260902123539 76 243 10.0 13.0 0.00 0.00 0.00 94 1011.3
20260902123028 76 252 8.0 12.0 0.00 0.00 0.00 94 1011.3
20260902122557 76 239 9.0 12.0 0.00 0.00 0.00 94 1011.3
20260902122025 76 246 9.0 14.0 0.00 0.00 0.00 94 1011.3
20260902121536 76 250 11.0 14.0 0.00 0.00 0.00 94 1011.3
20260902121030 76 243 10.0 13.0 0.00 0.00 0.00 94 1011.3
20260902120533 76 247 8.0 11.0 0.00 0.00 0.00 94 1011.3
20260902120044 76 255 6.0 10.0 0.00 0.00 0.00 93 1011.3